When you browse on this site, cookies collect data to enhance your experience and personalize the content and advertising you see.
Visit our Privacy Policy to learn more. By continuing to use the site, you agree to this use of cookies and data.
  • In Slovakia
  • List of Countries
  • For 7 days
  • Water Temperature
  • Weather Map
  • Weather Widgets
  • user-avatar
    Login

    Hourly Weather Hvar

    Today, 24 October, Thursday

    Time Temperature Precipitation Wind Pressure Humidity
    00:00 +21°C° 0 mm 1 mps 762 mmHg 61%
    01:00 +21°C° 0 mm 1 mps 761 mmHg 60%
    02:00 +20°C° 0 mm 2 mps 761 mmHg 60%
    03:00 +20°C° 0 mm 2 mps 761 mmHg 59%
    04:00 +20°C° 0 mm 2 mps 761 mmHg 59%
    05:00 +20°C° 0 mm 2 mps 761 mmHg 59%
    06:00 +20°C° 0 mm 2 mps 761 mmHg 58%
    07:00 +20°C° 0 mm 2 mps 761 mmHg 57%
    08:00 +21°C° 0 mm 3 mps 761 mmHg 54%
    09:00 +24°C° 0 mm 3 mps 761 mmHg 51%
    10:00 +25°C° 0 mm 3 mps 760 mmHg 48%
    11:00 +25°C° 0 mm 4 mps 760 mmHg 48%
    12:00 +25°C° 0 mm 4 mps 759 mmHg 48%
    13:00 +25°C° 0 mm 4 mps 759 mmHg 49%
    14:00 +25°C° 0 mm 4 mps 759 mmHg 53%
    15:00 +23°C° 0 mm 4 mps 758 mmHg 57%
    16:00 +23°C° 0 mm 4 mps 758 mmHg 62%
    17:00 +22°C° 0 mm 4 mps 758 mmHg 64%
    18:00 +21°C° 0 mm 4 mps 759 mmHg 66%
    19:00 +20°C° 0 mm 5 mps 759 mmHg 68%
    20:00 +20°C° 0 mm 5 mps 759 mmHg 66%
    21:00 +20°C° 0 mm 5 mps 759 mmHg 64%
    22:00 +20°C° 0 mm 5 mps 759 mmHg 62%
    23:00 +20°C° 0 mm 5 mps 759 mmHg 60%

    Tomorrow, 25 October, Friday

    Time Temperature Precipitation Wind Pressure Humidity
    00:00 +20°C° 0 mm 5 mps 759 mmHg 59%
    01:00 +19°C° 0 mm 5 mps 759 mmHg 58%
    02:00 +19°C° 0 mm 5 mps 759 mmHg 57%
    03:00 +19°C° 0 mm 5 mps 759 mmHg 57%
    04:00 +19°C° 0 mm 5 mps 759 mmHg 56%
    05:00 +19°C° 0 mm 5 mps 760 mmHg 55%
    06:00 +19°C° 0 mm 5 mps 760 mmHg 55%
    07:00 +19°C° 0 mm 5 mps 760 mmHg 54%
    08:00 +20°C° 0 mm 4 mps 760 mmHg 52%
    09:00 +22°C° 0 mm 4 mps 761 mmHg 50%
    10:00 +23°C° 0 mm 4 mps 761 mmHg 48%
    11:00 +24°C° 0 mm 3 mps 761 mmHg 47%
    12:00 +25°C° 0 mm 3 mps 761 mmHg 45%
    13:00 +25°C° 0 mm 2 mps 761 mmHg 44%
    14:00 +24°C° 0 mm 2 mps 761 mmHg 49%
    15:00 +24°C° 0 mm 1 mps 761 mmHg 53%
    16:00 +23°C° 0 mm 1 mps 761 mmHg 58%
    17:00 +22°C° 0 mm 1 mps 761 mmHg 60%
    18:00 +21°C° 0 mm 1 mps 762 mmHg 62%
    19:00 +20°C° 0 mm 1 mps 762 mmHg 64%
    20:00 +20°C° 0 mm 1 mps 763 mmHg 62%
    21:00 +20°C° 0 mm 1 mps 763 mmHg 60%
    22:00 +19°C° 0 mm 2 mps 763 mmHg 58%
    23:00 +19°C° 0 mm 2 mps 763 mmHg 58%

    Day after tomorrow, 26 October, Saturday

    Time Temperature Precipitation Wind Pressure Humidity
    00:00 +19°C° 0 mm 2 mps 763 mmHg 58%
    01:00 +19°C° 0 mm 2 mps 764 mmHg 58%
    02:00 +18°C° 0 mm 2 mps 763 mmHg 59%
    03:00 +18°C° 0 mm 2 mps 763 mmHg 60%
    04:00 +19°C° 0 mm 1 mps 763 mmHg 61%
    05:00 +18°C° 0 mm 2 mps 764 mmHg 60%
    06:00 +18°C° 0 mm 2 mps 764 mmHg 60%
    07:00 +18°C° 0 mm 2 mps 764 mmHg 60%
    08:00 +20°C° 0 mm 2 mps 764 mmHg 55%
    09:00 +23°C° 0 mm 1 mps 764 mmHg 50%
    10:00 +24°C° 0 mm 1 mps 764 mmHg 45%
    11:00 +25°C° 0 mm 1 mps 764 mmHg 44%
    12:00 +25°C° 0 mm 2 mps 764 mmHg 43%
    13:00 +26°C° 0 mm 2 mps 764 mmHg 41%
    14:00 +25°C° 0 mm 2 mps 764 mmHg 46%
    15:00 +24°C° 0 mm 2 mps 763 mmHg 51%
    16:00 +22°C° 0 mm 3 mps 763 mmHg 55%
    17:00 +22°C° 0 mm 3 mps 763 mmHg 58%
    18:00 +21°C° 0 mm 3 mps 764 mmHg 61%
    19:00 +20°C° 0 mm 3 mps 764 mmHg 64%
    20:00 +20°C° 0 mm 3 mps 764 mmHg 63%
    21:00 +20°C° 0 mm 3 mps 764 mmHg 62%
    22:00 +19°C° 0 mm 2 mps 764 mmHg 62%
    23:00 +19°C° 0 mm 2 mps 764 mmHg 60%

    , 27 October, Sunday

    Time Temperature Precipitation Wind Pressure Humidity
    00:00 +19°C° 0 mm 2 mps 764 mmHg 59%
    01:00 +19°C° 0 mm 2 mps 764 mmHg 57%
    02:00 +19°C° 0 mm 2 mps 764 mmHg 57%
    03:00 +20°C° 0 mm 1 mps 764 mmHg 57%
    04:00 +20°C° 0 mm 1 mps 764 mmHg 57%
    05:00 +20°C° 0 mm 1 mps 764 mmHg 56%
    06:00 +19°C° 0 mm 2 mps 764 mmHg 55%
    07:00 +19°C° 0 mm 2 mps 763 mmHg 54%
    08:00 +20°C° 0 mm 2 mps 764 mmHg 51%
    09:00 +23°C° 0 mm 1 mps 764 mmHg 48%
    10:00 +25°C° 0 mm 1 mps 764 mmHg 45%
    11:00 +25°C° 0 mm 1 mps 763 mmHg 43%
    12:00 +25°C° 0 mm 2 mps 763 mmHg 42%
    13:00 +25°C° 0 mm 2 mps 763 mmHg 40%
    14:00 +25°C° 0 mm 2 mps 762 mmHg 45%
    15:00 +24°C° 0 mm 2 mps 762 mmHg 49%
    16:00 +23°C° 0 mm 2 mps 762 mmHg 54%
    17:00 +21°C° 0 mm 2 mps 762 mmHg 56%
    18:00 +20°C° 0 mm 3 mps 762 mmHg 58%
    19:00 +19°C° 0 mm 3 mps 762 mmHg 60%
    20:00 +19°C° 0 mm 2 mps 762 mmHg 59%
    21:00 +19°C° 0 mm 2 mps 762 mmHg 58%
    22:00 +19°C° 0 mm 2 mps 762 mmHg 57%
    23:00 +19°C° 0 mm 2 mps 762 mmHg 57%

    27 October, Sunday

    Time Temperature Precipitation Wind Pressure Humidity
    00:00 +19°C° 0 mm 2 mps 764 mmHg 59%
    01:00 +19°C° 0 mm 2 mps 764 mmHg 57%
    02:00 +19°C° 0 mm 2 mps 764 mmHg 57%
    03:00 +20°C° 0 mm 1 mps 764 mmHg 57%
    04:00 +20°C° 0 mm 1 mps 764 mmHg 57%
    05:00 +20°C° 0 mm 1 mps 764 mmHg 56%
    06:00 +19°C° 0 mm 2 mps 764 mmHg 55%
    07:00 +19°C° 0 mm 2 mps 763 mmHg 54%
    08:00 +20°C° 0 mm 2 mps 764 mmHg 51%
    09:00 +23°C° 0 mm 1 mps 764 mmHg 48%
    10:00 +25°C° 0 mm 1 mps 764 mmHg 45%
    11:00 +25°C° 0 mm 1 mps 763 mmHg 43%
    12:00 +25°C° 0 mm 2 mps 763 mmHg 42%
    13:00 +25°C° 0 mm 2 mps 763 mmHg 40%
    14:00 +25°C° 0 mm 2 mps 762 mmHg 45%
    15:00 +24°C° 0 mm 2 mps 762 mmHg 49%
    16:00 +23°C° 0 mm 2 mps 762 mmHg 54%
    17:00 +21°C° 0 mm 2 mps 762 mmHg 56%
    18:00 +20°C° 0 mm 3 mps 762 mmHg 58%
    19:00 +19°C° 0 mm 3 mps 762 mmHg 60%
    20:00 +19°C° 0 mm 2 mps 762 mmHg 59%
    21:00 +19°C° 0 mm 2 mps 762 mmHg 58%
    22:00 +19°C° 0 mm 2 mps 762 mmHg 57%
    23:00 +19°C° 0 mm 2 mps 762 mmHg 57%

    28 October, Monday

    Time Temperature Precipitation Wind Pressure Humidity
    00:00 +19°C° 0 mm 2 mps 761 mmHg 56%
    01:00 +18°C° 0 mm 2 mps 761 mmHg 55%
    02:00 +18°C° 0 mm 2 mps 761 mmHg 54%
    03:00 +18°C° 0 mm 2 mps 761 mmHg 53%
    04:00 +18°C° 0 mm 2 mps 760 mmHg 52%
    05:00 +18°C° 0 mm 2 mps 760 mmHg 51%
    06:00 +18°C° 0 mm 2 mps 760 mmHg 50%
    07:00 +18°C° 0 mm 2 mps 760 mmHg 50%
    08:00 +19°C° 0 mm 2 mps 760 mmHg 45%
    09:00 +21°C° 0 mm 2 mps 760 mmHg 41%
    10:00 +24°C° 0 mm 2 mps 760 mmHg 37%
    11:00 +24°C° 0 mm 2 mps 759 mmHg 37%
    12:00 +24°C° 0 mm 3 mps 759 mmHg 37%
    13:00 +25°C° 0 mm 3 mps 759 mmHg 37%
    14:00 +24°C° 0 mm 3 mps 758 mmHg 42%
    15:00 +22°C° 0 mm 3 mps 758 mmHg 47%
    16:00 +21°C° 0 mm 3 mps 758 mmHg 52%
    17:00 +20°C° 0 mm 3 mps 758 mmHg 55%
    18:00 +19°C° 0 mm 3 mps 758 mmHg 57%
    19:00 +18°C° 0 mm 3 mps 758 mmHg 60%
    20:00 +18°C° 0 mm 3 mps 759 mmHg 58%
    21:00 +18°C° 0 mm 2 mps 759 mmHg 57%
    22:00 +18°C° 0 mm 2 mps 759 mmHg 55%
    23:00 +18°C° 0 mm 2 mps 759 mmHg 54%

    29 October, Tuesday

    Time Temperature Precipitation Wind Pressure Humidity
    00:00 +17°C° 0 mm 2 mps 758 mmHg 54%
    01:00 +17°C° 0 mm 2 mps 758 mmHg 53%
    02:00 +17°C° 0 mm 2 mps 758 mmHg 53%
    03:00 +17°C° 0 mm 2 mps 758 mmHg 53%
    04:00 +17°C° 0 mm 2 mps 758 mmHg 52%
    05:00 +17°C° 0 mm 2 mps 758 mmHg 54%
    06:00 +17°C° 0 mm 2 mps 758 mmHg 56%
    07:00 +18°C° 0 mm 1 mps 758 mmHg 58%
    08:00 +19°C° 0 mm 1 mps 758 mmHg 55%
    09:00 +20°C° 0 mm 1 mps 758 mmHg 52%
    10:00 +22°C° 0 mm 1 mps 758 mmHg 50%
    11:00 +22°C° 0 mm 1 mps 758 mmHg 50%
    12:00 +22°C° 0 mm 1 mps 758 mmHg 50%
    13:00 +23°C° 0 mm 1 mps 758 mmHg 50%
    14:00 +22°C° 0 mm 1 mps 758 mmHg 54%
    15:00 +20°C° 0 mm 0 mps 757 mmHg 57%
    16:00 +19°C° 0 mm 0 mps 757 mmHg 60%
    17:00 +18°C° 0 mm 0 mps 758 mmHg 63%
    18:00 +17°C° 0 mm 0 mps 758 mmHg 65%
    19:00 +19°C° 0 mm 1 mps 758 mmHg 68%
    20:00 +17°C° 0 mm 0 mps 758 mmHg 67%
    21:00 +16°C° 0 mm 0 mps 759 mmHg 66%
    22:00 +16°C° 0 mm 0 mps 759 mmHg 66%
    23:00 +16°C° 0 mm 0 mps 759 mmHg 65%
    Show more